Location: ActonStarParty
(42.4766°N, 71.4538°W)
Time: 09:20:20
(UTC-05:00)

ISS - All Passes

Search period start: 07 December 2016 00:00
Search period end: 17 December 2016 00:00
Orbit: 401 x 410 km, 51.6° (Epoch: 07 December)

Date Brightness Start Highest point End Pass type
(mag) Time Alt. Az. Time Alt. Az. Time Alt. Az.
07 Dec - 14:19:16 10° SSE 14:20:49 13° SE 14:22:23 10° ESE daylight
07 Dec - 15:53:37 10° WSW 15:56:54 79° NNW 16:00:12 10° NE daylight
07 Dec - 17:31:12 10° WNW 17:33:48 21° NNW 17:36:25 10° NE visible
07 Dec - 19:08:53 10° NW 19:11:10 17° N 19:13:28 10° NE visible
07 Dec - 20:45:12 10° NW 20:48:20 38° NNE 20:51:28 10° E night (unlit)
07 Dec - 22:21:49 10° WNW 22:24:47 30° SW 22:27:43 10° SSE night (unlit)
08 Dec - 15:01:43 10° SW 15:04:56 56° SE 15:08:11 10° ENE daylight
08 Dec - 16:38:44 10° W 16:41:36 27° NNW 16:44:30 10° NE visible
08 Dec - 18:16:41 10° NW 18:18:54 16° N 18:21:07 10° NE visible
08 Dec - 19:53:19 10° NW 19:56:12 27° NNE 19:59:05 10° E night (unlit)
08 Dec - 21:29:38 10° WNW 21:32:53 57° SW 21:36:08 10° SE night (unlit)
09 Dec - 14:10:08 10° SSW 14:13:02 29° SE 14:15:57 10° ENE daylight
09 Dec - 15:46:21 10° W 15:49:28 38° NNW 15:52:35 10° NE daylight
09 Dec - 17:24:20 10° NW 17:26:37 17° N 17:28:55 10° NE visible
09 Dec - 19:01:23 10° NW 19:04:00 21° NNE 19:06:36 10° ENE visible
09 Dec - 20:37:35 10° NW 20:40:54 78° NE 20:44:12 10° ESE night (unlit)
09 Dec - 22:15:20 10° W 22:16:59 13° SW 22:18:38 10° SSW night (unlit)
10 Dec - 13:19:05 10° S 13:21:12 16° SE 13:23:20 10° E daylight
10 Dec - 14:54:07 10° WSW 14:57:22 63° NNW 15:00:39 10° NE daylight
10 Dec - 16:31:51 10° WNW 16:34:21 20° NNW 16:36:51 10° NE daylight
10 Dec - 18:09:22 10° NW 18:11:44 18° N 18:14:05 10° NE visible
10 Dec - 19:45:37 10° NW 19:48:49 45° NNE 19:52:01 10° ESE night (unlit)
10 Dec - 21:22:26 10° W 21:25:10 24° SW 21:27:53 10° S night (unlit)
11 Dec - 14:02:04 10° SW 14:05:20 72° SE 14:08:37 10° ENE daylight
11 Dec - 15:39:20 10° WNW 15:42:06 24° NNW 15:44:52 10° NE daylight
11 Dec - 17:17:12 10° NW 17:19:25 17° N 17:21:39 10° NE visible
11 Dec - 18:53:41 10° NW 18:56:40 30° NNE 18:59:39 10° E visible
11 Dec - 20:30:05 10° WNW 20:33:16 44° SW 20:36:26 10° SSE night (unlit)
12 Dec - 13:10:19 10° SSW 13:13:22 37° SE 13:16:26 10° ENE daylight
12 Dec - 14:46:52 10° W 14:49:53 33° NNW 14:52:55 10° NE daylight
12 Dec - 16:24:52 10° NW 16:27:06 17° N 16:29:21 10° NE daylight
12 Dec - 18:01:45 10° NW 18:04:27 23° NNE 18:07:10 10° ENE visible
12 Dec - 19:37:58 10° WNW 19:41:16 85° SW 19:44:35 10° SE visible
12 Dec - 21:16:46 10° WSW 21:17:15 10° SW 21:17:44 10° SW night (unlit)
13 Dec - 12:18:58 10° S 12:21:28 20° SE 12:23:58 10° E daylight
13 Dec - 13:54:31 10° WSW 13:57:44 51° NNW 14:00:58 10° NE daylight
13 Dec - 15:32:23 10° WNW 15:34:47 18° N 15:37:11 10° NE daylight
13 Dec - 17:09:43 10° NW 17:12:09 19° N 17:14:36 10° ENE visible
13 Dec - 18:45:56 10° NW 18:49:11 55° NNE 18:52:27 10° ESE visible
13 Dec - 20:23:00 10° W 20:25:25 19° SW 20:27:51 10° S night (unlit)
14 Dec - 11:28:43 10° SE 11:29:38 11° SE 11:30:32 10° ESE daylight
14 Dec - 13:02:22 10° SW 13:05:38 90° NW 13:08:55 10° NE daylight
14 Dec - 14:39:49 10° WNW 14:42:29 22° NNW 14:45:08 10° NE daylight
14 Dec - 16:17:35 10° NW 16:19:50 17° N 16:22:05 10° NE daylight
14 Dec - 17:53:57 10° NW 17:57:01 35° NNE 18:00:05 10° E visible
14 Dec - 19:30:28 10° WNW 19:33:31 35° SW 19:36:33 10° SSE visible
15 Dec - 12:10:27 10° SW 12:13:35 47° SE 12:16:47 10° ENE daylight
15 Dec - 13:47:17 10° W 13:50:13 29° NNW 13:53:09 10° NE daylight
15 Dec - 15:25:16 10° NW 15:27:28 16° N 15:29:41 10° NE daylight
15 Dec - 17:01:58 10° NW 17:04:47 25° NNE 17:07:35 10° ENE visible
15 Dec - 18:38:13 10° WNW 18:41:31 67° SW 18:44:48 10° SE visible
16 Dec - 11:18:53 10° SSW 11:21:38 25° SE 11:24:24 10° ENE daylight
16 Dec - 12:54:51 10° W 12:57:59 43° NNW 13:01:09 10° NE daylight
16 Dec - 14:32:47 10° NW 14:35:06 18° N 14:37:26 10° NE daylight
16 Dec - 16:09:57 10° NW 16:12:28 20° NNE 16:15:00 10° ENE daylight
16 Dec - 17:46:07 10° NW 17:49:26 67° NNE 17:52:43 10° ESE visible
16 Dec - 19:23:33 10° W 19:25:34 15° SW 19:27:35 10° S visible
